STARLINK-1795, 46696

Orbit data source: Space-Track

STARLINK-1795, 46696 is a payload satellite owned by SpaceX/Seattle (US) in LEO that was launched on Sun, 18 Oct 2020 UTC via an FALCON 9 launch vehicle from the Air Force Eastern Test Range (AFETR). Payload-class satellites include a variety of spacecraft equipped with specific instruments for various scientific and technological missions. These include communications satellites like Starlink; space stations such as the ISS; scientific satellites like the Hubble; Earth observation satellites from companies like Planet Labs, Umbra, and HawkEye 360; GPS; miniature CubeSats for education and research; and military/defense satellites.

Loading next visibility...
Identifier
46696, 2020-073AC
Orbit
LEO
Country
Flag of USUS
Related business
Manufacturer
SpaceX/Seattle
Mission
Operational Commercial Communications
Bus & Motor
STARLINK, Unknown motor
Mass
260 kg wet, ~248 kg dry
Launch date (UTC)
2020-10-18 (5 years ago)
Launch vehicle
FALCON 9
Launch site
Air Force Eastern Test Range (AFETR)
Object type
Payload
Rocket body
Debris
Shape & HBR
Box + 1 Pan, 10.1 m
Radar Cross Section
13.562 m², Large (>1 m²)

Expand to show TLE details & history
Last TLE update: 11 hours ago

TLE from 11 hours ago
0 STARLINK-1795
1 46696U 20073AC  25303.33335648  .01811928  00000-0  65345-1 0  9995
2 46696  53.0543  86.1783 0001001  94.3692 100.1179 15.24963567  5654
Epoch: 2025-10-30T08:00Z
TLE epoch observation values (Epoch: 2025-10-30T08:00:01.999Z)
Latitude
-11.68729°
Longitude
116.17652°
Altitude
494.149 km
Speed
7.618 km/s
True Right ascension
18h 20m 18s
True Declination
-11° 36' 60"
Sunlit
Object was in daylight at epoch
Visualization orbit readout
Latitude
Unknown
Longitude
Unknown
Altitude
Unknown
Speed
Unknown
Apparent Right ascension
Unknown
Apparent Declination
Unknown
Sunlit
N/A
Visualization observer readout
Local Sidereal Time
14:56:48
Azimuth
Unknown
Elevation
Unknown
Doppler factor
Unknown
Orbital elements
Apogee altitude
491.855 km
Perigee altitude
490.48 km
Semi-major axis
6,869.305 km
Eccentricity
0.0001
Inclination
53.0543°
RAAN
86.1783°
Arg. of periapsis
94.3692°
True anomaly
100.12919°
Mean anomaly
100.1179°
Eccentric anomaly
100.12355°
Mean motion
3.81219 °/min
Orbital period
94.43 mins
BSTAR
0.065345
Loading maneuver chart data...
Computing Atmospheric mass density...

Documentation

Showing up to 5 results
|